Regional Weather Roundup
Issued by NWS Cleveland, OH

Home | Current Version | Previous Version | Graphics & Text | Print | Product List | Glossary On
Versions: 1 2 3 4 5 6 7 8 9 10 11 12 13 14 15 16 17 18 19 20 21 22 23 24 25 26 27 28 29 30 31 32 33 34 35 36 37 38 39 40 41 42 43 44 45 46 47 48 49 50
000
ASUS41 KCLE 280910
RWRCLE
OHIO REGIONAL WEATHER ROUNDUP
NATIONAL WEATHER SERVICE CLEVELAND, OH
400 AM EST SUN DEC 28 2014

NOTE: "FAIR" INDICATES FEW OR NO CLOUDS BELOW 12,000 FEET WITH NO
SIGNIFICANT WEATHER AND/OR OBSTRUCTIONS TO VISIBILITY.

OHZ001>008-015>018-024>027-034-035-043-044-281000-
   NORTHWEST OHIO

CITY           SKY/WX    TMP DP  RH WIND       PRES   REMARKS
DEFIANCE       CLOUDY    36  30  79 W6        30.06S
FINDLAY        CLOUDY    36  33  89 NW10      30.03F
TOLEDO EXPRESS CLOUDY    35  31  85 W8        30.04R WCI  29
TOLEDO EXEC    CLOUDY    37  31  78 W9        30.04R
LIMA           CLOUDY    36  32  85 W10       30.04S FOG
$$

OHZ009>014-019>023-028>033-038-089-281000-
   NORTHEAST OHIO

CITY           SKY/WX    TMP DP  RH WIND       PRES   REMARKS
CLE-HOPKINS    CLOUDY    36  33  89 W8        30.03R
CLE-LAKEFRONT  CLOUDY    37  34  89 W13       30.01R
CUY CO. ARPT   NOT AVBL
LORAIN-ELYRIA  CLOUDY    35 N/A N/A W7        30.02S WCI  29
ASHTABULA      LGT RAIN  36  34  92 W6        29.98R
AKRON-CANTON   LGT RAIN  41  37  86 NW14G22   29.98R
WOOSTER        CLOUDY    38  36  92 NW10      30.00R
MANSFIELD      LGT RAIN  36  35  96 W9        30.00S FOG
YOUNGSTOWN     LGT RAIN  39  37  92 NW9       29.95R
$$

OHZ042-051>053-060>062-070>072-077>081-281000-
  SOUTHWEST OHIO

CITY           SKY/WX    TMP DP  RH WIND       PRES   REMARKS
CINC-COVINGTON CLOUDY    39  34  82 NW9G18    30.06R
CINC-LUNKEN    CLOUDY    40  39  97 CALM      30.09R
HAMILTON       CLOUDY    39  37  92 NW9       30.08S
DAYTON         CLOUDY    36  34  92 NW9       30.06S
WRIGHT-PAT AFB CLOUDY    37  35  91 NW9       30.05S
DAYTON GENERAL CLOUDY    37  34  89 N10       30.05R
WILMINGTON     CLOUDY    38  35  89 NW10      30.04R
$$

OHZ036-037-039>041-045>050-054>059-063>069-073>076-082>088-281000-
  CENTRAL AND SOUTHEAST OHIO

CITY           SKY/WX    TMP DP  RH WIND       PRES   REMARKS
COLUMBUS       CLOUDY    39  37  93 NW10      30.02R
OSU AIRPORT    CLOUDY    39  36  89 NW12      30.02R
BOLTON FIELD   CLOUDY    38  37  94 MISG      30.03R
RICKENBACK AFB DRIZZLE   41  39  95 NW17      30.02R
NEWARK         LGT RAIN  41  38  89 NW15G24   30.00R
MARION         CLOUDY    36  32  85 NW10      30.03R
LANCASTER      LGT RAIN  47  45  93 W7        30.01R
ZANESVILLE     CLOUDY    46  44  93 W3        29.98F
NEW PHILLY     LGT RAIN  47  45  93 W3        29.97F
$$



USA.gov is the U.S. government's official web portal to all federal, state and local government web resources and services.